User: anonymous   Login
Location: Peebles
(55.6412°N, 3.1714°W)
Time: 08:04:25
(UTC+00:00)
Language:

Cosmos 1538 Rocket - Orbit

View from above orbital plane
View from above orbital plane
View from above satellite
View from above satellite

Ground track
Ground track

The orbit data is extracted from the following two-line orbital elements,

1 14760U 84019B   21337.13604237  .00000035  00000-0  21108-4 0  9996
2 14760  74.0442  11.5615 0028099 193.7426 166.2965 14.35930251977528
Epoch (UTC): 03 December 2021 03:15:54
Eccentricity: 0.0028099
inclination: 74.0442°
perigee height: 752 km
apogee height: 792 km
right ascension of ascending node: 11.5615°
argument of perigee: 193.7426°
revolutions per day: 14.35930251
mean anomaly at epoch: 166.2965°
orbit number at epoch: 97752

The dashed part of the orbit path shows where the satellite is in the earth's shadow,  

DLR